Time,TemperatureF,DewpointF,PressureIn,WindDirection,WindDirectionDegrees,WindSpeedMPH,WindSpeedGustMPH,Humidity,HourlyPrecipIn,Conditions,Clouds,dailyrainin,SoftwareType,DateUTC
2013-09-12 00:01:00,71.1,71.1,29.88,NNE,31,0.0,0.0,100,0.00,,,0.00,Wunderground v.1.15,2013-09-12 04:01:00,
2013-09-12 00:03:00,71.1,71.1,29.88,NNE,31,0.0,0.0,100,0.00,,,0.00,Wunderground v.1.15,2013-09-12 04:03:00,
2013-09-12 00:04:00,71.1,71.1,29.88,NNE,32,0.0,0.0,100,0.00,,,0.00,Wunderground v.1.15,2013-09-12 04:04:00,
2013-09-12 00:06:00,71.1,71.1,29.88,NNE,32,0.0,0.0,100,0.00,,,0.00,Wunderground v.1.15,2013-09-12 04:06:00,
2013-09-12 00:08:00,71.1,71.1,29.88,NNE,32,0.0,0.0,100,0.00,,,0.00,Wunderground v.1.15,2013-09-12 04:08:00,
2013-09-12 00:13:00,71.1,71.1,29.88,NNE,32,0.0,0.0,100,0.00,,,0.00,Wunderground v.1.15,2013-09-12 04:13:00,
2013-09-12 00:19:00,71.3,71.3,29.87,NNE,32,0.0,0.0,100,0.00,,,0.00,Wunderground v.1.15,2013-09-12 04:19:00,
2013-09-12 00:24:00,71.3,71.3,29.87,NNE,32,0.0,0.0,100,0.00,,,0.00,Wunderground v.1.15,2013-09-12 04:24:00,
2013-09-12 00:29:00,71.3,71.3,29.87,NE,34,0.0,0.0,100,0.00,,,0.00,Wunderground v.1.15,2013-09-12 04:29:00,
2013-09-12 00:35:00,71.5,71.5,29.88,NE,35,0.0,0.0,100,0.00,,,0.00,Wunderground v.1.15,2013-09-12 04:35:00,
2013-09-12 00:41:00,71.5,71.5,29.88,NE,35,0.0,0.0,100,0.00,,,0.00,Wunderground v.1.15,2013-09-12 04:41:00,
2013-09-12 00:46:00,71.6,71.6,29.87,NE,35,0.0,0.0,100,0.00,,,0.00,Wunderground v.1.15,2013-09-12 04:46:00,
2013-09-12 00:52:00,71.6,71.6,29.87,NE,37,0.0,0.0,100,0.00,,,0.00,Wunderground v.1.15,2013-09-12 04:52:00,
2013-09-12 00:57:00,71.8,71.8,29.87,NE,35,0.0,0.0,100,0.00,,,0.00,Wunderground v.1.15,2013-09-12 04:57:00,
2013-09-12 01:03:00,71.8,71.8,29.87,NE,35,0.0,0.0,100,0.00,,,0.00,Wunderground v.1.15,2013-09-12 05:03:00,
2013-09-12 01:09:00,72.0,72.0,29.87,NE,37,0.0,0.0,100,0.00,,,0.00,Wunderground v.1.15,2013-09-12 05:09:00,
2013-09-12 01:14:00,72.0,72.0,29.87,NE,35,0.0,0.0,100,0.00,,,0.00,Wunderground v.1.15,2013-09-12 05:14:00,
2013-09-12 01:19:00,72.1,72.1,29.87,NE,37,0.0,0.0,100,0.00,,,0.00,Wunderground v.1.15,2013-09-12 05:19:00,
2013-09-12 01:25:00,72.3,72.3,29.87,NE,38,0.0,0.0,100,0.00,,,0.00,Wunderground v.1.15,2013-09-12 05:25:00,
2013-09-12 01:30:00,72.5,72.5,29.87,NE,37,0.0,0.0,100,0.00,,,0.00,Wunderground v.1.15,2013-09-12 05:30:00,
2013-09-12 01:36:00,72.5,72.5,29.87,NE,38,0.0,0.0,100,0.00,,,0.00,Wunderground v.1.15,2013-09-12 05:36:00,
2013-09-12 01:41:00,72.7,72.7,29.87,NE,38,0.0,0.0,100,0.00,,,0.00,Wunderground v.1.15,2013-09-12 05:41:00,
2013-09-12 01:47:00,72.7,72.7,29.87,NE,40,0.0,0.0,100,0.00,,,0.00,Wunderground v.1.15,2013-09-12 05:47:00,
2013-09-12 01:52:00,72.8,72.8,29.87,NE,41,0.0,0.0,100,0.00,,,0.00,Wunderground v.1.15,2013-09-12 05:52:00,
2013-09-12 01:59:00,72.8,72.8,29.87,NE,40,0.0,0.0,100,0.00,,,0.00,Wunderground v.1.15,2013-09-12 05:59:00,
2013-09-12 02:04:00,72.7,72.7,29.86,NE,40,0.0,0.0,100,0.00,,,0.00,Wunderground v.1.15,2013-09-12 06:04:00,
2013-09-12 02:09:00,72.7,72.7,29.86,NE,40,0.0,0.0,100,0.00,,,0.00,Wunderground v.1.15,2013-09-12 06:09:00,
2013-09-12 02:15:00,72.5,72.5,29.86,NE,41,0.0,0.0,100,0.00,,,0.00,Wunderground v.1.15,2013-09-12 06:15:00,
2013-09-12 02:21:00,72.5,72.5,29.86,NE,41,0.0,0.0,100,0.00,,,0.00,Wunderground v.1.15,2013-09-12 06:21:00,
2013-09-12 02:26:00,72.5,72.5,29.86,NE,41,0.0,0.0,100,0.00,,,0.00,Wunderground v.1.15,2013-09-12 06:26:00,
2013-09-12 02:31:00,72.3,72.3,29.86,NE,41,0.0,0.0,100,0.00,,,0.00,Wunderground v.1.15,2013-09-12 06:31:00,
2013-09-12 02:37:00,72.3,72.3,29.86,NE,41,0.0,0.0,100,0.00,,,0.00,Wunderground v.1.15,2013-09-12 06:37:00,
2013-09-12 02:42:00,72.3,72.3,29.86,NE,42,0.0,0.0,100,0.00,,,0.00,Wunderground v.1.15,2013-09-12 06:42:00,
2013-09-12 02:49:00,72.5,72.5,29.86,NE,42,0.0,0.0,100,0.00,,,0.00,Wunderground v.1.15,2013-09-12 06:49:00,
2013-09-12 02:54:00,72.5,72.5,29.86,NE,41,0.0,0.0,100,0.00,,,0.00,Wunderground v.1.15,2013-09-12 06:54:00,
2013-09-12 02:59:00,72.3,72.3,29.86,NE,44,0.0,0.0,100,0.00,,,0.00,Wunderground v.1.15,2013-09-12 06:59:00,
2013-09-12 03:04:00,72.3,72.3,29.85,NE,47,0.0,0.0,100,0.00,,,0.00,Wunderground v.1.15,2013-09-12 07:04:00,
2013-09-12 03:10:00,72.5,72.5,29.85,NE,48,0.0,0.0,100,0.00,,,0.00,Wunderground v.1.15,2013-09-12 07:10:00,
2013-09-12 03:16:00,72.3,72.3,29.85,NE,49,0.0,0.0,100,0.00,,,0.00,Wunderground v.1.15,2013-09-12 07:16:00,
2013-09-12 03:21:00,72.0,72.0,29.85,NE,56,0.0,0.0,100,0.00,,,0.00,Wunderground v.1.15,2013-09-12 07:21:00,
2013-09-12 03:26:00,71.8,71.8,29.85,NE,51,0.0,0.0,100,0.00,,,0.00,Wunderground v.1.15,2013-09-12 07:26:00,
2013-09-12 03:32:00,72.0,72.0,29.85,NE,49,0.0,0.0,100,0.00,,,0.00,Wunderground v.1.15,2013-09-12 07:32:00,
2013-09-12 03:37:00,71.8,71.8,29.85,NE,54,0.0,0.0,100,0.00,,,0.00,Wunderground v.1.15,2013-09-12 07:37:00,
2013-09-12 03:44:00,71.8,71.8,29.85,NE,51,0.0,0.0,100,0.00,,,0.00,Wunderground v.1.15,2013-09-12 07:44:00,
2013-09-12 03:49:00,72.0,72.0,29.85,NE,52,0.0,0.0,100,0.00,,,0.00,Wunderground v.1.15,2013-09-12 07:49:00,
2013-09-12 03:54:00,72.1,72.1,29.85,NE,49,0.0,0.0,100,0.00,,,0.00,Wunderground v.1.15,2013-09-12 07:54:00,
2013-09-12 03:59:00,72.0,72.0,29.85,NE,52,0.0,0.0,100,0.00,,,0.00,Wunderground v.1.15,2013-09-12 07:59:00,
2013-09-12 04:04:00,72.0,72.0,29.85,NE,55,0.0,0.0,100,0.00,,,0.00,Wunderground v.1.15,2013-09-12 08:04:00,
2013-09-12 04:09:00,71.8,71.8,29.85,NE,55,0.0,0.0,100,0.00,,,0.00,Wunderground v.1.15,2013-09-12 08:09:00,
2013-09-12 04:15:00,71.8,71.8,29.85,ENE,59,0.0,0.0,100,0.00,,,0.00,Wunderground v.1.15,2013-09-12 08:15:00,
2013-09-12 04:20:00,71.6,71.6,29.85,NE,54,0.0,0.0,100,0.00,,,0.00,Wunderground v.1.15,2013-09-12 08:20:00,
2013-09-12 04:26:00,71.5,71.5,29.85,NE,55,0.0,0.0,100,0.00,,,0.00,Wunderground v.1.15,2013-09-12 08:26:00,
2013-09-12 04:31:00,71.6,71.6,29.85,NE,54,0.0,0.0,100,0.00,,,0.00,Wunderground v.1.15,2013-09-12 08:31:00,
2013-09-12 04:37:00,71.8,71.8,29.85,NE,54,0.0,0.0,100,0.00,,,0.00,Wunderground v.1.15,2013-09-12 08:37:00,
2013-09-12 04:42:00,71.8,71.8,29.85,NE,55,0.0,0.0,100,0.00,,,0.00,Wunderground v.1.15,2013-09-12 08:42:00,
2013-09-12 04:49:00,71.8,71.8,29.85,ENE,58,0.0,0.0,100,0.00,,,0.00,Wunderground v.1.15,2013-09-12 08:49:00,
2013-09-12 04:54:00,72.0,72.0,29.85,ENE,58,0.0,0.0,100,0.00,,,0.00,Wunderground v.1.15,2013-09-12 08:54:00,
2013-09-12 04:59:00,72.1,72.1,29.85,ENE,58,0.0,0.0,100,0.00,,,0.00,Wunderground v.1.15,2013-09-12 08:59:00,
2013-09-12 05:04:00,72.3,72.3,29.84,NE,55,0.0,0.0,100,0.00,,,0.00,Wunderground v.1.15,2013-09-12 09:04:00,
2013-09-12 05:10:00,72.5,72.5,29.84,NE,56,0.0,0.0,100,0.00,,,0.00,Wunderground v.1.15,2013-09-12 09:10:00,
2013-09-12 05:15:00,72.7,72.7,29.84,ENE,58,0.0,0.0,100,0.00,,,0.00,Wunderground v.1.15,2013-09-12 09:15:00,
2013-09-12 05:20:00,72.7,72.7,29.84,NE,56,0.0,0.0,100,0.00,,,0.00,Wunderground v.1.15,2013-09-12 09:20:00,
2013-09-12 05:26:00,72.8,72.8,29.84,ENE,58,0.0,0.0,100,0.00,,,0.00,Wunderground v.1.15,2013-09-12 09:26:00,
2013-09-12 05:31:00,73.2,73.2,29.84,ENE,58,0.0,0.0,100,0.00,,,0.00,Wunderground v.1.15,2013-09-12 09:31:00,
2013-09-12 05:37:00,73.5,73.5,29.84,ENE,58,0.0,1.0,100,0.00,,,0.00,Wunderground v.1.15,2013-09-12 09:37:00,
2013-09-12 05:42:00,73.9,73.9,29.84,ENE,59,0.0,1.0,100,0.00,,,0.00,Wunderground v.1.15,2013-09-12 09:42:00,
2013-09-12 05:47:00,74.0,74.0,29.85,NE,54,0.0,1.0,100,0.00,,,0.00,Wunderground v.1.15,2013-09-12 09:47:00,
2013-09-12 05:54:00,74.6,74.6,29.85,NE,54,0.0,2.0,100,0.00,,,0.00,Wunderground v.1.15,2013-09-12 09:54:00,
2013-09-12 05:59:00,74.7,74.7,29.85,NE,52,1.0,5.0,100,0.00,,,0.00,Wunderground v.1.15,2013-09-12 09:59:00,
2013-09-12 06:04:00,74.7,74.7,29.85,NE,48,2.0,3.0,100,0.00,,,0.00,Wunderground v.1.15,2013-09-12 10:04:00,
2013-09-12 06:10:00,74.2,74.2,29.85,NE,45,1.0,1.0,100,0.00,,,0.00,Wunderground v.1.15,2013-09-12 10:10:00,
2013-09-12 06:16:00,73.9,73.9,29.86,NE,45,1.0,3.0,100,0.00,,,0.00,Wunderground v.1.15,2013-09-12 10:16:00,
2013-09-12 06:21:00,73.5,73.5,29.86,NE,47,2.0,3.0,100,0.00,,,0.00,Wunderground v.1.15,2013-09-12 10:21:00,
2013-09-12 06:27:00,73.3,73.3,29.86,NE,47,2.0,3.0,100,0.00,,,0.00,Wunderground v.1.15,2013-09-12 10:27:00,
2013-09-12 06:32:00,73.0,73.0,29.86,NE,44,1.0,5.0,100,0.00,,,0.00,Wunderground v.1.15,2013-09-12 10:32:00,
2013-09-12 06:37:00,72.7,72.7,29.86,NE,45,2.0,7.0,100,0.00,,,0.00,Wunderground v.1.15,2013-09-12 10:37:00,
2013-09-12 06:42:00,72.1,72.1,29.86,NE,42,2.0,5.0,100,0.00,,,0.00,Wunderground v.1.15,2013-09-12 10:42:00,
2013-09-12 06:47:00,71.6,71.6,29.86,NE,42,1.0,5.0,100,0.00,,,0.00,Wunderground v.1.15,2013-09-12 10:47:00,
2013-09-12 06:53:00,71.3,71.3,29.86,NE,42,1.0,1.0,100,0.00,,,0.00,Wunderground v.1.15,2013-09-12 10:53:00,
2013-09-12 06:59:00,70.9,70.9,29.86,NE,42,0.0,1.0,100,0.00,,,0.00,Wunderground v.1.15,2013-09-12 10:59:00,
2013-09-12 07:04:00,70.8,70.8,29.87,NE,42,0.0,5.0,100,0.00,,,0.00,Wunderground v.1.15,2013-09-12 11:04:00,
2013-09-12 07:10:00,70.6,70.6,29.87,NE,47,0.0,5.0,100,0.00,,,0.00,Wunderground v.1.15,2013-09-12 11:10:00,
2013-09-12 07:15:00,70.3,70.3,29.87,NE,47,0.0,0.0,100,0.00,,,0.00,Wunderground v.1.15,2013-09-12 11:15:00,
2013-09-12 07:21:00,70.1,70.1,29.87,NE,47,0.0,0.0,100,0.00,,,0.00,Wunderground v.1.15,2013-09-12 11:21:00,
2013-09-12 07:26:00,69.8,69.8,29.87,NE,49,0.0,0.0,100,0.00,,,0.00,Wunderground v.1.15,2013-09-12 11:26:00,
2013-09-12 07:31:00,69.4,69.4,29.88,NE,47,0.0,0.0,100,0.00,,,0.00,Wunderground v.1.15,2013-09-12 11:31:00,
2013-09-12 07:37:00,69.6,69.6,29.88,NE,42,0.0,0.0,100,0.00,,,0.00,Wunderground v.1.15,2013-09-12 11:37:00,
2013-09-12 07:43:00,69.3,69.3,29.88,NE,41,0.0,0.0,100,0.00,,,0.00,Wunderground v.1.15,2013-09-12 11:43:00,
2013-09-12 07:48:00,68.8,68.8,29.88,NE,38,0.0,0.0,100,0.00,,,0.00,Wunderground v.1.15,2013-09-12 11:48:00,
2013-09-12 07:53:00,68.6,68.6,29.88,NE,37,0.0,0.0,100,0.00,,,0.00,Wunderground v.1.15,2013-09-12 11:53:00,
2013-09-12 07:59:00,68.1,68.1,29.88,NE,40,0.0,0.0,100,0.00,,,0.00,Wunderground v.1.15,2013-09-12 11:59:00,
2013-09-12 08:04:00,67.8,67.8,29.89,NE,41,0.0,8.0,100,0.00,,,0.00,Wunderground v.1.15,2013-09-12 12:04:00,
2013-09-12 08:10:00,67.4,67.4,29.89,NE,44,0.0,8.0,100,0.00,,,0.00,Wunderground v.1.15,2013-09-12 12:10:00,
2013-09-12 08:15:00,67.1,67.1,29.89,NE,47,0.0,0.0,100,0.00,,,0.00,Wunderground v.1.15,2013-09-12 12:15:00,
2013-09-12 08:21:00,66.9,66.9,29.89,NE,47,0.0,0.0,100,0.00,,,0.00,Wunderground v.1.15,2013-09-12 12:21:00,
2013-09-12 08:26:00,66.8,66.8,29.89,NE,52,0.0,0.0,100,0.00,,,0.00,Wunderground v.1.15,2013-09-12 12:26:00,
2013-09-12 08:31:00,66.4,66.4,29.89,NE,49,0.0,0.0,100,0.00,,,0.00,Wunderground v.1.15,2013-09-12 12:31:00,
2013-09-12 08:37:00,66.1,66.1,29.89,ENE,61,0.0,0.0,100,0.00,,,0.00,Wunderground v.1.15,2013-09-12 12:37:00,
2013-09-12 08:42:00,66.0,66.0,29.89,NE,55,0.0,0.0,100,0.00,,,0.00,Wunderground v.1.15,2013-09-12 12:42:00,
2013-09-12 08:47:00,66.1,66.1,29.89,NE,47,0.0,0.0,100,0.00,,,0.00,Wunderground v.1.15,2013-09-12 12:47:00,
2013-09-12 08:53:00,66.0,66.0,29.89,NE,47,0.0,0.0,100,0.00,,,0.00,Wunderground v.1.15,2013-09-12 12:53:00,
2013-09-12 08:58:00,66.0,66.0,29.89,NE,44,0.0,0.0,100,0.00,,,0.00,Wunderground v.1.15,2013-09-12 12:58:00,
2013-09-12 09:03:00,66.1,66.1,29.89,NE,42,0.0,0.0,100,0.00,,,0.00,Wunderground v.1.15,2013-09-12 13:03:00,
2013-09-12 09:09:00,66.6,66.6,29.89,NE,48,0.0,0.0,100,0.00,,,0.00,Wunderground v.1.15,2013-09-12 13:09:00,
2013-09-12 09:15:00,66.4,66.4,29.89,NE,51,0.0,0.0,100,0.00,,,0.00,Wunderground v.1.15,2013-09-12 13:15:00,
2013-09-12 09:20:00,66.3,66.3,29.89,NE,44,0.0,0.0,100,0.00,,,0.00,Wunderground v.1.15,2013-09-12 13:20:00,
2013-09-12 09:26:00,66.3,66.3,29.89,NE,42,0.0,0.0,100,0.00,,,0.00,Wunderground v.1.15,2013-09-12 13:26:00,
2013-09-12 09:31:00,66.4,66.4,29.89,NE,37,0.0,0.0,100,0.00,,,0.00,Wunderground v.1.15,2013-09-12 13:31:00,
2013-09-12 09:36:00,66.4,66.4,29.89,NE,40,0.0,0.0,100,0.00,,,0.00,Wunderground v.1.15,2013-09-12 13:36:00,
2013-09-12 09:42:00,67.1,67.1,29.89,NE,37,0.0,0.0,100,0.00,,,0.00,Wunderground v.1.15,2013-09-12 13:42:00,
2013-09-12 09:47:00,68.3,68.3,29.89,NE,41,0.0,0.0,100,0.00,,,0.00,Wunderground v.1.15,2013-09-12 13:47:00,
2013-09-12 09:53:00,68.8,68.8,29.89,NE,34,0.0,0.0,100,0.00,,,0.00,Wunderground v.1.15,2013-09-12 13:53:00,
2013-09-12 09:58:00,69.1,65.1,29.89,NE,35,0.0,2.0,87,0.00,,,0.00,Wunderground v.1.15,2013-09-12 13:58:00,
2013-09-12 10:03:00,69.8,65.8,29.89,NE,35,0.0,0.0,87,0.00,,,0.00,Wunderground v.1.15,2013-09-12 14:03:00,
2013-09-12 10:09:00,71.3,63.0,29.89,NE,40,0.0,2.0,75,0.00,,,0.00,Wunderground v.1.15,2013-09-12 14:09:00,
2013-09-12 10:15:00,71.8,60.2,29.89,NE,38,1.0,2.0,67,0.00,,,0.00,Wunderground v.1.15,2013-09-12 14:15:00,
2013-09-12 10:20:00,72.1,62.2,29.89,NE,37,1.0,2.0,71,0.00,,,0.00,Wunderground v.1.15,2013-09-12 14:20:00,
2013-09-12 10:26:00,72.5,61.7,29.89,NE,37,0.0,2.0,69,0.00,,,0.00,Wunderground v.1.15,2013-09-12 14:26:00,
2013-09-12 10:31:00,72.5,62.2,29.89,NE,37,0.0,0.0,70,0.00,,,0.00,Wunderground v.1.15,2013-09-12 14:31:00,
2013-09-12 10:37:00,72.5,62.2,29.89,NE,40,0.0,0.0,70,0.00,,,0.00,Wunderground v.1.15,2013-09-12 14:37:00,
2013-09-12 10:42:00,72.5,62.2,29.89,NE,38,0.0,0.0,70,0.00,,,0.00,Wunderground v.1.15,2013-09-12 14:42:00,
2013-09-12 10:47:00,72.5,62.6,29.89,NE,37,0.0,0.0,71,0.00,,,0.00,Wunderground v.1.15,2013-09-12 14:47:00,
2013-09-12 10:53:00,72.7,63.9,29.89,NE,38,0.0,0.0,74,0.00,,,0.00,Wunderground v.1.15,2013-09-12 14:53:00,
2013-09-12 10:58:00,72.8,65.5,29.89,NE,40,0.0,0.0,78,0.00,,,0.00,Wunderground v.1.15,2013-09-12 14:58:00,
2013-09-12 11:04:00,73.3,62.1,29.89,NE,44,1.0,3.0,68,0.00,,,0.00,Wunderground v.1.15,2013-09-12 15:04:00,
2013-09-12 11:10:00,73.9,62.2,29.89,NE,42,2.0,3.0,67,0.00,,,0.00,Wunderground v.1.15,2013-09-12 15:10:00,
2013-09-12 11:15:00,73.5,61.9,29.89,NE,42,1.0,2.0,67,0.00,,,0.00,Wunderground v.1.15,2013-09-12 15:15:00,
2013-09-12 11:21:00,73.5,62.3,29.89,NE,42,1.0,1.0,68,0.00,,,0.00,Wunderground v.1.15,2013-09-12 15:21:00,
2013-09-12 11:26:00,73.5,62.7,29.89,NE,38,1.0,2.0,69,0.00,,,0.00,Wunderground v.1.15,2013-09-12 15:26:00,
2013-09-12 11:32:00,73.7,62.1,29.89,NE,38,1.0,1.0,67,0.00,,,0.00,Wunderground v.1.15,2013-09-12 15:32:00,
2013-09-12 11:37:00,73.7,62.5,29.89,NE,37,1.0,2.0,68,0.00,,,0.00,Wunderground v.1.15,2013-09-12 15:37:00,
2013-09-12 11:43:00,73.9,63.1,29.89,NE,34,1.0,1.0,69,0.00,,,0.00,Wunderground v.1.15,2013-09-12 15:43:00,
2013-09-12 11:48:00,74.0,63.2,29.88,NE,37,1.0,1.0,69,0.00,,,0.00,Wunderground v.1.15,2013-09-12 15:48:00,
2013-09-12 11:53:00,74.2,62.1,29.88,NNE,32,0.0,0.0,66,0.00,,,0.00,Wunderground v.1.15,2013-09-12 15:53:00,
2013-09-12 11:58:00,74.7,59.9,29.88,NNE,30,1.0,2.0,60,0.00,,,0.00,Wunderground v.1.15,2013-09-12 15:58:00,
2013-09-12 12:03:00,75.1,60.3,29.88,NNE,31,1.0,2.0,60,0.00,,,0.00,Wunderground v.1.15,2013-09-12 16:03:00,
2013-09-12 12:09:00,75.1,60.3,29.88,NNE,31,2.0,5.0,60,0.00,,,0.00,Wunderground v.1.15,2013-09-12 16:09:00,
2013-09-12 12:15:00,75.1,59.3,29.88,NNE,30,3.0,4.0,58,0.00,,,0.00,Wunderground v.1.15,2013-09-12 16:15:00,
2013-09-12 12:20:00,75.1,61.2,29.88,NNE,30,2.0,2.0,62,0.00,,,0.00,Wunderground v.1.15,2013-09-12 16:20:00,
2013-09-12 12:26:00,74.7,61.7,29.88,NNE,28,1.0,4.0,64,0.00,,,0.00,Wunderground v.1.15,2013-09-12 16:26:00,
2013-09-12 12:31:00,74.6,62.9,29.88,NNE,30,0.0,0.0,67,0.00,,,0.00,Wunderground v.1.15,2013-09-12 16:31:00,
2013-09-12 12:37:00,74.7,60.8,29.88,NNE,32,1.0,5.0,62,0.00,,,0.00,Wunderground v.1.15,2013-09-12 16:37:00,
2013-09-12 12:42:00,74.9,62.3,29.88,NNE,24,3.0,3.0,65,0.00,,,0.00,Wunderground v.1.15,2013-09-12 16:42:00,
2013-09-12 12:47:00,74.9,60.5,29.88,NNE,25,3.0,7.0,61,0.00,,,0.00,Wunderground v.1.15,2013-09-12 16:47:00,
2013-09-12 12:53:00,74.9,61.9,29.88,NNE,24,2.0,3.0,64,0.00,,,0.00,Wunderground v.1.15,2013-09-12 16:53:00,
2013-09-12 12:58:00,74.4,61.9,29.88,NNE,31,2.0,3.0,65,0.00,,,0.00,Wunderground v.1.15,2013-09-12 16:58:00,
2013-09-12 13:04:00,73.9,63.5,29.88,NNE,27,2.0,7.0,70,0.00,,,0.00,Wunderground v.1.15,2013-09-12 17:04:00,
2013-09-12 13:10:00,74.0,63.6,29.88,NNE,32,2.0,2.0,70,0.00,,,0.00,Wunderground v.1.15,2013-09-12 17:10:00,
2013-09-12 13:15:00,73.9,65.5,29.88,NNE,32,4.0,6.0,75,0.00,,,0.00,Wunderground v.1.15,2013-09-12 17:15:00,
2013-09-12 13:21:00,73.9,65.5,29.88,NNE,24,3.0,3.0,75,0.00,,,0.00,Wunderground v.1.15,2013-09-12 17:21:00,
2013-09-12 13:26:00,73.7,65.7,29.88,NNE,25,1.0,3.0,76,0.00,,,0.00,Wunderground v.1.15,2013-09-12 17:26:00,
2013-09-12 13:32:00,73.5,64.3,29.87,NNE,31,1.0,2.0,73,0.00,,,0.00,Wunderground v.1.15,2013-09-12 17:32:00,
2013-09-12 13:37:00,73.2,61.2,29.87,NNE,32,1.0,2.0,66,0.00,,,0.00,Wunderground v.1.15,2013-09-12 17:37:00,
2013-09-12 13:42:00,74.0,63.2,29.87,NNE,31,2.0,3.0,69,0.00,,,0.00,Wunderground v.1.15,2013-09-12 17:42:00,
2013-09-12 13:48:00,74.2,65.0,29.87,NNE,30,2.0,5.0,73,0.00,,,0.00,Wunderground v.1.15,2013-09-12 17:48:00,
2013-09-12 13:53:00,74.2,65.8,29.87,NNE,28,2.0,5.0,75,0.00,,,0.00,Wunderground v.1.15,2013-09-12 17:53:00,
2013-09-12 13:59:00,73.9,66.2,29.87,NE,35,3.0,10.0,77,0.00,,,0.00,Wunderground v.1.15,2013-09-12 17:59:00,
2013-09-12 14:04:00,73.7,63.3,29.86,NNE,27,5.0,10.0,70,0.00,,,0.00,Wunderground v.1.15,2013-09-12 18:04:00,
2013-09-12 14:10:00,73.7,61.6,29.86,NNE,28,4.0,4.0,66,0.00,,,0.00,Wunderground v.1.15,2013-09-12 18:10:00,
2013-09-12 14:16:00,73.5,63.1,29.86,NNE,28,3.0,7.0,70,0.00,,,0.00,Wunderground v.1.15,2013-09-12 18:16:00,
2013-09-12 14:21:00,74.0,63.2,29.86,NNE,31,3.0,5.0,69,0.00,,,0.00,Wunderground v.1.15,2013-09-12 18:21:00,
2013-09-12 14:27:00,74.2,65.0,29.86,NNE,23,3.0,6.0,73,0.00,,,0.00,Wunderground v.1.15,2013-09-12 18:27:00,
2013-09-12 14:32:00,73.9,66.6,29.87,NNE,30,3.0,7.0,78,0.00,,,0.00,Wunderground v.1.15,2013-09-12 18:32:00,
2013-09-12 14:38:00,73.3,63.7,29.87,NNE,27,4.0,7.0,72,0.00,,,0.00,Wunderground v.1.15,2013-09-12 18:38:00,
2013-09-12 14:43:00,73.3,64.1,29.87,NNE,25,4.0,6.0,73,0.00,,,0.00,Wunderground v.1.15,2013-09-12 18:43:00,
2013-09-12 14:48:00,72.8,66.6,29.86,NE,34,3.0,6.0,81,0.00,,,0.00,Wunderground v.1.15,2013-09-12 18:48:00,
2013-09-12 14:54:00,72.5,68.4,29.86,NNE,28,3.0,7.0,87,0.00,,,0.00,Wunderground v.1.15,2013-09-12 18:54:00,
2013-09-12 14:59:00,73.0,68.9,29.86,NNE,31,3.0,8.0,87,0.00,,,0.00,Wunderground v.1.15,2013-09-12 18:59:00,
2013-09-12 15:04:00,73.0,66.5,29.85,NNE,28,4.0,11.0,80,0.00,,,0.00,Wunderground v.1.15,2013-09-12 19:04:00,
2013-09-12 15:10:00,72.7,65.8,29.85,NNE,30,4.0,4.0,79,0.00,,,0.00,Wunderground v.1.15,2013-09-12 19:10:00,
2013-09-12 15:16:00,73.3,65.3,29.85,NNE,25,2.0,7.0,76,0.00,,,0.00,Wunderground v.1.15,2013-09-12 19:16:00,
2013-09-12 15:21:00,73.2,61.6,29.85,NNE,25,2.0,6.0,67,0.00,,,0.00,Wunderground v.1.15,2013-09-12 19:21:00,
2013-09-12 15:27:00,73.3,61.3,29.85,NNE,24,3.0,6.0,66,0.00,,,0.00,Wunderground v.1.15,2013-09-12 19:27:00,
2013-09-12 15:32:00,73.7,62.9,29.84,NNE,28,3.0,3.0,69,0.00,,,0.00,Wunderground v.1.15,2013-09-12 19:32:00,
2013-09-12 15:37:00,74.0,59.2,29.84,NNE,21,2.0,6.0,60,0.00,,,0.00,Wunderground v.1.15,2013-09-12 19:37:00,
2013-09-12 15:43:00,74.7,62.6,29.84,NNE,21,3.0,3.0,66,0.00,,,0.00,Wunderground v.1.15,2013-09-12 19:43:00,
2013-09-12 15:49:00,74.9,61.9,29.83,NNE,27,3.0,10.0,64,0.00,,,0.00,Wunderground v.1.15,2013-09-12 19:49:00,
2013-09-12 15:54:00,74.6,61.2,29.83,NNE,20,4.0,6.0,63,0.00,,,0.00,Wunderground v.1.15,2013-09-12 19:54:00,
2013-09-12 15:59:00,74.6,60.3,29.83,NNE,21,4.0,8.0,61,0.00,,,0.00,Wunderground v.1.15,2013-09-12 19:59:00,
2013-09-12 16:05:00,74.6,59.8,29.84,NNE,21,5.0,11.0,60,0.00,,,0.00,Wunderground v.1.15,2013-09-12 20:05:00,
2013-09-12 16:11:00,74.9,61.0,29.84,NNE,21,3.0,7.0,62,0.00,,,0.00,Wunderground v.1.15,2013-09-12 20:11:00,
2013-09-12 16:16:00,74.7,56.9,29.84,NNE,21,4.0,7.0,54,0.00,,,0.00,Wunderground v.1.15,2013-09-12 20:16:00,
2013-09-12 16:21:00,74.7,56.9,29.84,NNE,25,4.0,5.0,54,0.00,,,0.00,Wunderground v.1.15,2013-09-12 20:21:00,
2013-09-12 16:27:00,74.7,58.5,29.84,NNE,23,3.0,8.0,57,0.00,,,0.00,Wunderground v.1.15,2013-09-12 20:27:00,
2013-09-12 16:32:00,74.7,60.8,29.84,NNE,23,3.0,5.0,62,0.00,,,0.00,Wunderground v.1.15,2013-09-12 20:32:00,
2013-09-12 16:39:00,74.0,61.9,29.84,NNE,24,5.0,10.0,66,0.00,,,0.00,Wunderground v.1.15,2013-09-12 20:39:00,
2013-09-12 16:44:00,73.3,64.5,29.84,NNE,23,5.0,7.0,74,0.00,,,0.00,Wunderground v.1.15,2013-09-12 20:44:00,
2013-09-12 16:49:00,72.1,66.3,29.84,NNE,17,5.0,10.0,82,0.00,,,0.00,Wunderground v.1.15,2013-09-12 20:49:00,
2013-09-12 16:54:00,71.8,67.0,29.84,NNE,17,6.0,8.0,85,0.00,,,0.00,Wunderground v.1.15,2013-09-12 20:54:00,
2013-09-12 16:59:00,71.8,65.7,29.84,NNE,17,7.0,8.0,81,0.00,,,0.00,Wunderground v.1.15,2013-09-12 20:59:00,
2013-09-12 17:05:00,71.1,63.9,29.84,North,1,6.0,12.0,78,0.00,,,0.00,Wunderground v.1.15,2013-09-12 21:05:00,
2013-09-12 17:11:00,70.8,64.0,29.84,NNE,20,5.0,7.0,79,0.00,,,0.00,Wunderground v.1.15,2013-09-12 21:11:00,
2013-09-12 17:16:00,70.8,64.7,29.84,NNE,20,6.0,10.0,81,0.00,,,0.00,Wunderground v.1.15,2013-09-12 21:16:00,
2013-09-12 17:21:00,69.8,65.4,29.84,North,1,7.0,7.0,86,0.00,,,0.00,Wunderground v.1.15,2013-09-12 21:21:00,
2013-09-12 17:26:00,69.3,67.5,29.84,NNE,23,6.0,12.0,94,0.00,,,0.00,Wunderground v.1.15,2013-09-12 21:26:00,
2013-09-12 17:32:00,68.6,66.8,29.84,NNE,18,5.0,12.0,94,0.00,,,0.00,Wunderground v.1.15,2013-09-12 21:32:00,
2013-09-12 17:37:00,67.9,66.7,29.84,NE,37,5.0,12.0,96,0.00,,,0.00,Wunderground v.1.15,2013-09-12 21:37:00,
2013-09-12 17:44:00,67.1,67.1,29.84,NNE,27,5.0,5.0,100,0.00,,,0.00,Wunderground v.1.15,2013-09-12 21:44:00,
2013-09-12 17:49:00,66.8,66.8,29.85,NNE,27,3.0,6.0,100,0.00,,,0.00,Wunderground v.1.15,2013-09-12 21:49:00,
2013-09-12 17:54:00,66.9,66.9,29.85,NNE,31,2.0,6.0,100,0.00,,,0.00,Wunderground v.1.15,2013-09-12 21:54:00,
2013-09-12 17:59:00,67.1,67.1,29.85,North,4,2.0,7.0,100,0.00,,,0.00,Wunderground v.1.15,2013-09-12 21:59:00,
2013-09-12 18:06:00,67.6,67.6,29.85,NNE,30,2.0,17.0,100,0.00,,,0.00,Wunderground v.1.15,2013-09-12 22:06:00,
2013-09-12 18:11:00,68.1,66.0,29.85,NNE,32,3.0,4.0,93,0.00,,,0.00,Wunderground v.1.15,2013-09-12 22:11:00,
2013-09-12 18:16:00,68.4,64.7,29.86,North,0,3.0,5.0,88,0.00,,,0.00,Wunderground v.1.15,2013-09-12 22:16:00,
2013-09-12 18:22:00,68.6,63.6,29.86,NNE,30,4.0,4.0,84,0.00,,,0.00,Wunderground v.1.15,2013-09-12 22:22:00,
2013-09-12 18:27:00,68.4,62.7,29.86,NNE,27,4.0,7.0,82,0.00,,,0.00,Wunderground v.1.15,2013-09-12 22:27:00,
2013-09-12 18:34:00,68.6,63.2,29.86,NE,38,4.0,8.0,83,0.00,,,0.00,Wunderground v.1.15,2013-09-12 22:34:00,
2013-09-12 18:39:00,68.6,63.2,29.86,NE,35,4.0,8.0,83,0.00,,,0.00,Wunderground v.1.15,2013-09-12 22:39:00,
2013-09-12 18:44:00,68.4,63.0,29.86,NE,34,4.0,9.0,83,0.00,,,0.00,Wunderground v.1.15,2013-09-12 22:44:00,
2013-09-12 18:49:00,68.4,61.3,29.87,NE,34,5.0,9.0,78,0.00,,,0.00,Wunderground v.1.15,2013-09-12 22:49:00,
2013-09-12 18:54:00,68.3,61.9,29.87,NNE,28,7.0,12.0,80,0.00,,,0.00,Wunderground v.1.15,2013-09-12 22:54:00,
2013-09-12 19:00:00,68.1,62.4,29.88,NE,34,6.0,6.0,82,0.00,,,0.00,Wunderground v.1.15,2013-09-12 23:00:00,
2013-09-12 19:06:00,67.8,62.4,29.88,NNE,32,6.0,13.0,83,0.00,,,0.00,Wunderground v.1.15,2013-09-12 23:06:00,
2013-09-12 19:11:00,67.4,61.7,29.88,NNE,32,6.0,6.0,82,0.00,,,0.00,Wunderground v.1.15,2013-09-12 23:11:00,
2013-09-12 19:17:00,67.1,59.3,29.89,NE,34,6.0,9.0,76,0.00,,,0.00,Wunderground v.1.15,2013-09-12 23:17:00,
2013-09-12 19:22:00,66.9,58.3,29.89,NE,35,6.0,9.0,74,0.00,,,0.00,Wunderground v.1.15,2013-09-12 23:22:00,
2013-09-12 19:29:00,66.8,59.4,29.89,NNE,31,6.0,10.0,77,0.00,,,0.00,Wunderground v.1.15,2013-09-12 23:29:00,
2013-09-12 19:34:00,66.4,59.7,29.89,NE,35,5.0,6.0,79,0.00,,,0.00,Wunderground v.1.15,2013-09-12 23:34:00,
2013-09-12 19:39:00,66.3,59.6,29.89,NNE,31,4.0,10.0,79,0.00,,,0.00,Wunderground v.1.15,2013-09-12 23:39:00,
2013-09-12 19:44:00,66.0,59.7,29.90,NNE,31,4.0,5.0,80,0.00,,,0.00,Wunderground v.1.15,2013-09-12 23:44:00,
2013-09-12 19:50:00,65.8,60.2,29.90,NNE,31,3.0,3.0,82,0.00,,,0.00,Wunderground v.1.15,2013-09-12 23:50:00,
2013-09-12 19:56:00,65.6,60.3,29.90,NE,41,3.0,3.0,83,0.00,,,0.00,Wunderground v.1.15,2013-09-12 23:56:00,
2013-09-12 20:01:00,65.5,61.2,29.90,NE,45,2.0,5.0,86,0.00,,,0.00,Wunderground v.1.15,2013-09-13 00:01:00,
2013-09-12 20:07:00,65.3,61.3,29.90,NE,47,1.0,20.0,87,0.00,,,0.00,Wunderground v.1.15,2013-09-13 00:07:00,
2013-09-12 20:14:00,65.2,61.6,29.90,NE,52,2.0,3.0,88,0.00,,,0.00,Wunderground v.1.15,2013-09-13 00:14:00,
2013-09-12 20:19:00,65.2,60.2,29.91,NE,55,2.0,3.0,84,0.00,,,0.00,Wunderground v.1.15,2013-09-13 00:19:00,
2013-09-12 20:24:00,65.2,58.9,29.91,NE,51,1.0,5.0,80,0.00,,,0.00,Wunderground v.1.15,2013-09-13 00:24:00,
2013-09-12 20:29:00,65.5,57.7,29.91,NE,48,3.0,10.0,76,0.00,,,0.00,Wunderground v.1.15,2013-09-13 00:29:00,
2013-09-12 20:35:00,65.5,58.5,29.91,NE,48,4.0,4.0,78,0.00,,,0.00,Wunderground v.1.15,2013-09-13 00:35:00,
2013-09-12 20:41:00,65.5,58.1,29.91,North,0,3.0,3.0,77,0.00,,,0.00,Wunderground v.1.15,2013-09-13 00:41:00,
2013-09-12 20:46:00,65.3,57.9,29.91,NE,51,2.0,7.0,77,0.00,,,0.00,Wunderground v.1.15,2013-09-13 00:46:00,
2013-09-12 20:52:00,65.2,57.8,29.91,NE,49,2.0,2.0,77,0.00,,,0.00,Wunderground v.1.15,2013-09-13 00:52:00,
2013-09-12 20:57:00,65.2,58.5,29.91,NE,47,2.0,11.0,79,0.00,,,0.00,Wunderground v.1.15,2013-09-13 00:57:00,
2013-09-12 21:03:00,65.0,60.0,29.92,ENE,61,3.0,7.0,84,0.00,,,0.00,Wunderground v.1.15,2013-09-13 01:03:00,
2013-09-12 21:09:00,64.8,60.2,29.92,NE,44,3.0,12.0,85,0.00,,,0.00,Wunderground v.1.15,2013-09-13 01:09:00,
2013-09-12 21:14:00,64.7,60.7,29.92,NE,54,3.0,7.0,87,0.00,,,0.00,Wunderground v.1.15,2013-09-13 01:14:00,
2013-09-12 21:20:00,64.7,61.4,29.92,NE,52,3.0,7.0,89,0.00,,,0.00,Wunderground v.1.15,2013-09-13 01:20:00,
2013-09-12 21:25:00,64.5,62.1,29.92,NE,49,2.0,6.0,92,0.00,,,0.00,Wunderground v.1.15,2013-09-13 01:25:00,
2013-09-12 21:31:00,64.7,61.4,29.93,ENE,58,3.0,3.0,89,0.00,,,0.00,Wunderground v.1.15,2013-09-13 01:31:00,
2013-09-12 21:37:00,64.7,59.1,29.93,NE,45,4.0,8.0,82,0.00,,,0.00,Wunderground v.1.15,2013-09-13 01:37:00,
2013-09-12 21:42:00,64.7,58.0,29.93,NE,52,4.0,5.0,79,0.00,,,0.00,Wunderground v.1.15,2013-09-13 01:42:00,
2013-09-12 21:47:00,64.5,58.2,29.94,NE,47,3.0,5.0,80,0.00,,,0.00,Wunderground v.1.15,2013-09-13 01:47:00,
2013-09-12 21:53:00,64.3,58.0,29.94,ENE,58,2.0,4.0,80,0.00,,,0.00,Wunderground v.1.15,2013-09-13 01:53:00,
2013-09-12 21:59:00,64.2,58.2,29.94,NE,45,2.0,5.0,81,0.00,,,0.00,Wunderground v.1.15,2013-09-13 01:59:00,
2013-09-12 22:04:00,64.0,58.4,29.94,ENE,62,2.0,13.0,82,0.00,,,0.00,Wunderground v.1.15,2013-09-13 02:04:00,
2013-09-12 22:09:00,63.7,58.1,29.94,NE,42,1.0,13.0,82,0.00,,,0.00,Wunderground v.1.15,2013-09-13 02:09:00,
2013-09-12 22:15:00,63.5,58.2,29.95,NE,51,1.0,2.0,83,0.00,,,0.00,Wunderground v.1.15,2013-09-13 02:15:00,
2013-09-12 22:20:00,63.4,58.1,29.95,North,1,1.0,2.0,83,0.00,,,0.00,Wunderground v.1.15,2013-09-13 02:20:00,
2013-09-12 22:26:00,63.2,58.3,29.95,East,82,1.0,3.0,84,0.00,,,0.00,Wunderground v.1.15,2013-09-13 02:26:00,
2013-09-12 22:31:00,63.1,58.5,29.95,East,80,1.0,1.0,85,0.00,,,0.00,Wunderground v.1.15,2013-09-13 02:31:00,
2013-09-12 22:37:00,62.9,57.3,29.95,ENE,76,1.0,3.0,82,0.00,,,0.00,Wunderground v.1.15,2013-09-13 02:37:00,
2013-09-12 22:42:00,62.6,57.0,29.95,ENE,65,1.0,1.0,82,0.00,,,0.00,Wunderground v.1.15,2013-09-13 02:42:00,
2013-09-12 22:48:00,62.3,55.7,29.95,ENE,78,2.0,7.0,79,0.00,,,0.00,Wunderground v.1.15,2013-09-13 02:48:00,
2013-09-12 22:53:00,62.1,55.2,29.95,ENE,68,2.0,6.0,78,0.00,,,0.00,Wunderground v.1.15,2013-09-13 02:53:00,
2013-09-12 22:59:00,61.8,55.2,29.95,North,8,2.0,6.0,79,0.00,,,0.00,Wunderground v.1.15,2013-09-13 02:59:00,
2013-09-12 23:04:00,61.5,54.6,29.96,ENE,64,2.0,14.0,78,0.00,,,0.00,Wunderground v.1.15,2013-09-13 03:04:00,
2013-09-12 23:10:00,61.3,54.4,29.96,ENE,61,2.0,14.0,78,0.00,,,0.00,Wunderground v.1.15,2013-09-13 03:10:00,
2013-09-12 23:15:00,61.2,54.6,29.96,ENE,76,3.0,6.0,79,0.00,,,0.00,Wunderground v.1.15,2013-09-13 03:15:00,
2013-09-12 23:21:00,61.0,54.4,29.96,ENE,76,3.0,5.0,79,0.00,,,0.00,Wunderground v.1.15,2013-09-13 03:21:00,
2013-09-12 23:26:00,60.7,54.8,29.96,ENE,73,3.0,5.0,81,0.00,,,0.00,Wunderground v.1.15,2013-09-13 03:26:00,
2013-09-12 23:32:00,60.5,54.3,29.97,ENE,69,2.0,6.0,80,0.00,,,0.00,Wunderground v.1.15,2013-09-13 03:32:00,
2013-09-12 23:37:00,60.5,54.0,29.97,ENE,68,2.0,8.0,79,0.00,,,0.00,Wunderground v.1.15,2013-09-13 03:37:00,
2013-09-12 23:43:00,60.2,54.0,29.97,NE,51,2.0,5.0,80,0.00,,,0.00,Wunderground v.1.15,2013-09-13 03:43:00,
2013-09-12 23:48:00,60.1,52.9,29.97,ENE,65,3.0,6.0,77,0.00,,,0.00,Wunderground v.1.15,2013-09-13 03:48:00,
2013-09-12 23:54:00,59.9,52.7,29.97,NNE,14,3.0,7.0,77,0.00,,,0.00,Wunderground v.1.15,2013-09-13 03:54:00,
2013-09-12 23:59:00,59.6,52.7,29.97,North,0,3.0,7.0,78,0.00,,,0.00,Wunderground v.1.15,2013-09-13 03:59:00,